sat.trackr.live / text

‹ back to catalog

STARLINK-11374 [DTC]

NORAD 61581 · 2024-187H

PAYLOAD ACTIVE UNKNOWN

§ Identity

Operator
Country
US
Launch date
2024-10-18
Launch site
AFETR
Launch vehicle
Mass (kg)
RCS (m²)

Purposes: comms

External: N2YO · Heavens-Above · Gunter

§ Orbital elements

Epoch: 2026-05-25T01:57:52.404192Z

Period
91.74 min
Inclination
53.1596°
Eccentricity
0.0001243
Mean motion
15.69715834 rev/d
Perigee alt
358.9 km
Apogee alt
360.5 km
Semi-major
6,737.8 km
B*
1.6234e-5
RAAN
280.0246°
Arg perigee
80.0677°
Mean anomaly
280.0481°
Rev number
9,279

§ Raw data

STARLINK-11374 [DTC]1 61581U 24187H   26145.08185653  .00001379  00000+0  16234-4 0  99962 61581  53.1596 280.0246 0001243  80.0677 280.0481 15.69715834 92791

JSON: /api/v1/satellites/61581 · /tle

For live sub-satellite position, see the globe view (requires WebGL).

§ Visibility from observer

Set your observer location to see the next 7 days of passes ≥ 10°. The values pass through the URL so the page stays shareable.

No JS? Fill the form by hand. The geolocation button needs JavaScript.